Location: ??
(31.9467°N, 34.8903°E)
Time: 01:11:02
(UTC+00:00)

Cosmos 2227 Rocket - Pass Details

Date: 29 October 2020
Orbit: 839 x 845 km, 71.0° (Epoch: 25 November)

Event Time Altitude Azimuth Distance (km) Brightness Sun altitude
Rises 16:57:29 0° 328° (NNW) 3,401 5.8 -26.9°
Reaches altitude 10° 17:00:07 10° 320° (NW) 2,464 5.1 -27.5°
Maximum altitude 17:05:09 34° 257° (WSW) 1,355 3.7 -28.5°
Drops below altitude 10° 17:10:10 10° 193° (SSW) 2,455 4.7 -29.6°
Sets 17:12:48 0° 184° (S) 3,386 5.4 -30.1°
